Voltar ao catálogo

COSMOS 1162

AtivoMilitarLEO
NORAD 11697·PAYLOAD·🇷🇺 Russia

Lançado Feb 11, 1980 de Plesetsk Cosmodrome

Loading…

Próximas Passagens (próximas 24 horas)

TLE

AtualizadoSource: Space-Track

Época: Sep 14, 2026, 10:56 UTC

1 11697U 80012G   26257.45589163  .00000008  00000-0  17022-3 0  9991
2 11697  74.0214 147.1806 0030282 239.5984 231.8022 12.42743615113587

Acompanhe COSMOS 1162 em tempo real com AllMySat

Download on the App Store